Location: ?astrovice
(49.6513°N, 14.9287°E)
Time: 23:47:11
(UTC+00:00)

Cosmos 1814 Rocket - Pass Details

Date: 09 April 2020
Orbit: 744 x 787 km, 74.1° (Epoch: 23 May)

Event Time Altitude Azimuth Distance (km) Brightness Sun altitude
Rises 19:56:47 0° 338° (NNW) 3,289 8.4 -19.7°
Reaches altitude 10° 19:59:14 10° 343° (NNW) 2,359 7.4 -20.0°
Maximum altitude 20:04:31 55° 61° (ENE) 944 4.3 -20.7°
Enters shadow 20:05:56 42° 111° (ESE) 1,109 4.4 -20.8°
